Voltar ao catálogo

COSMOS 729

AtivoMilitarPO
NORAD 7768·PAYLOAD·🇷🇺 Russia

Lançado Apr 22, 1975 de Plesetsk Cosmodrome

Loading…

Próximas Passagens (próximas 24 horas)

TLE

AtualizadoSource: Space-Track

Época: Sep 14, 2026, 11:32 UTC

1 07768U 75034A   26257.48070575  .00000035  00000-0  21807-4 0  9995
2 07768  82.9606  64.5180 0021639 275.1408 111.5141 13.73649073575298

Acompanhe COSMOS 729 em tempo real com AllMySat

Download on the App Store